Oakland, CA

11:46 AM PDT on May 28, 2017 (GMT -0700)
Metro Oakland International

Weather History for KOAK - June, 2014

Change the Weather History Date:

Monday, June 30, 2014

  Actual Average Record
Temperature  
Mean Temperature 70 °F 63 °F  
Max Temperature 82 °F 71 °F 90 °F (1950)
Min Temperature 57 °F 55 °F 49 °F (1949)
Degree Days  
Heating Degree Days 0 2  
Month to date heating degree days 71 105  
Since 1 June heating degree days 71 103  
Since 1 July heating degree days 2340 2873  
Cooling Degree Days 5 1  
Month to date cooling degree days 20 18  
Year to date cooling degree days 64 34  
Since 1 June cooling degree days 20 18  
Growing Degree Days 19 (Base 50)    
Moisture  
Dew Point 54 °F    
Average Humidity 63    
Maximum Humidity 84    
Minimum Humidity 42    
Precipitation  
Precipitation 0.00 in 0.00 in 0.00 in (2017)
Month to date precipitation T 0.18  
Year to date precipitation 7.98 13.22  
Since 1 July precipitation 10.05  
Sea Level Pressure  
Sea Level Pressure 29.82 in    
Wind  
Wind Speed 9 mph (NW)    
Max Wind Speed 20 mph    
Max Gust Speed 35 mph    
Visibility 10 miles    
Events      
T = Trace of Precipitation, MM = Missing Value Source: NWS Daily Summary

Daily Weather History Graph

Daily Weather History Graph

Search for Another Location

Airport or City:

Trip Planner

Search our weather history database for the weather conditions in past years. The results will help you decide how hot, cold, wet, or windy it might be!

Date:

Astronomy

Jun. 30, 2014 Rise Set
Actual Time 5:50 AM PDT 8:34 PM PDT
Civil Twilight 5:19 AM PDT 9:05 PM PDT
Nautical Twilight 4:40 AM PDT 9:44 PM PDT
Astronomical Twilight 3:56 AM PDT 10:28 PM PDT
Moon 9:04 AM PDT (6/30) 10:34 PM PDT (6/30)
Length of Visible Light 15h 46m
Length of Day
14h 44m
Waxing Crescent, 11% of the Moon is Illuminated
Jun 30
Waxing Crescent
Jul 5
First Quarter
Jul 12
Full
Jul 18
Last Quarter
Jul 26
New

Hourly Weather History & Observations

Time (PDT) Temp. Heat Index Dew Point Humidity Pressure Visibility Wind Dir Wind Speed Gust Speed Precip Events Conditions
12:53 AM 61.0 °F - 54.0 °F 78% 29.84 in 10.0 mi NW 8.1 mph - N/A   Clear
1:53 AM 60.1 °F - 52.0 °F 75% 29.83 in 10.0 mi WNW 10.4 mph - N/A   Clear
2:53 AM 60.1 °F - 52.0 °F 75% 29.83 in 10.0 mi WNW 5.8 mph - N/A   Clear
3:53 AM 60.1 °F - 53.1 °F 78% 29.83 in 9.0 mi NW 3.5 mph - N/A   Clear
4:53 AM 60.1 °F - 53.1 °F 78% 29.83 in 8.0 mi NW 3.5 mph - N/A   Clear
5:53 AM 57.9 °F - 52.0 °F 81% 29.83 in 8.0 mi Calm Calm - N/A   Partly Cloudy
6:53 AM 61.0 °F - 55.0 °F 81% 29.83 in 8.0 mi Calm Calm - N/A   Partly Cloudy
7:53 AM 64.9 °F - 55.0 °F 70% 29.83 in 8.0 mi Calm Calm - N/A   Partly Cloudy
8:53 AM 66.9 °F - 55.9 °F 68% 29.83 in 9.0 mi WSW 3.5 mph - N/A   Partly Cloudy
9:53 AM 69.1 °F - 55.9 °F 63% 29.83 in 10.0 mi SW 3.5 mph - N/A   Partly Cloudy
10:53 AM 73.9 °F - 55.9 °F 53% 29.83 in 10.0 mi West 5.8 mph - N/A   Scattered Clouds
11:53 AM 78.1 °F - 57.0 °F 48% 29.82 in 10.0 mi WNW 9.2 mph - N/A   Scattered Clouds
12:53 PM 81.0 °F 80.7 °F 55.0 °F 41% 29.81 in 10.0 mi WNW 15.0 mph - N/A   Mostly Cloudy
1:53 PM 73.0 °F - 57.0 °F 57% 29.81 in 10.0 mi WNW 17.3 mph - N/A   Mostly Cloudy
2:53 PM 73.9 °F - 55.9 °F 53% 29.81 in 10.0 mi WNW 17.3 mph - N/A   Mostly Cloudy
3:53 PM 72.0 °F - 55.0 °F 55% 29.81 in 10.0 mi NW 16.1 mph - N/A   Mostly Cloudy
4:53 PM 73.9 °F - 53.1 °F 48% 29.80 in 10.0 mi NW 15.0 mph - N/A   Mostly Cloudy
5:53 PM 71.1 °F - 53.1 °F 53% 29.79 in 10.0 mi NW 15.0 mph - N/A   Mostly Cloudy
6:53 PM 71.1 °F - 52.0 °F 51% 29.79 in 10.0 mi NNW 13.8 mph - N/A   Mostly Cloudy
7:53 PM 66.0 °F - 53.1 °F 63% 29.80 in 10.0 mi NW 13.8 mph - N/A   Mostly Cloudy
8:53 PM 63.0 °F - 54.0 °F 72% 29.81 in 10.0 mi NW 13.8 mph - N/A   Mostly Cloudy
9:53 PM 60.8 °F - 53.6 °F 77% 29.82 in 10.0 mi NW 11.5 mph - N/A   Mostly Cloudy
10:53 PM 61.0 °F - 54.0 °F 78% 29.81 in 10.0 mi NNW 9.2 mph - N/A   Mostly Cloudy
11:53 PM 60.1 °F - 54.0 °F 80% 29.81 in 10.0 mi NNW 13.8 mph - N/A   Mostly Cloudy